SCP
0 0 0 0 0 0 0 0 0 0 0 0 0 0 0 0 0 0 0 0 0 0 0 0 0 -0 -0 -0 -0 -0 -0 0 0 0 0 0 0 0 0 0 0 0 0 0 0 0 0 0 0
0 0 0 0 0 0 0 0 0 0 0 0 0 0 0 0 0 0 0 0 0 0 0 0 0 -0 -0 -0 0 -0 -0 0 0 0 0 0 0 -0 -0 -0 0 0 0 0 0 0 0 0 0
0 0 0 0 0 0 0 0 0 0 0 0 0 0 0 0 0 0 0 0 0 0 0 0 0 0 -0 -0 -0 0 0 0 0 0 -0 -0 -0 -0 -0 -0 -0 -0 -0 -0 0 0 0 0 0
0 0 0 0 0 0 0 0 0 0 0 0 0 0 0 0 0 0 0 0 0 0 0 0 0 0 0 0 -0 -0 0 0 0 0 0 -0 -0 -0 -0 -0 -0 -0 -0 -0 -0 -0 -0 -0 0
0 0 0 0 0 0 0 0 0 0 0 0 0 0 0 0 0 0 0 0 0 0 0 0 0 0 0 0 0 0 0 0 0 0 0 0 -0 -0 0 0 -0 -0 -0 -0 -0 -0 -0 -0 -0
0 0 0 0 0 0 0 0 0 0 0 0 0 0 0 0 0 0 0 0 0 0 0 0 0 0 0 0 0 0 0 0 0 0 0 0 0 0 0 0 0 0 -0 0 -0 -0 -0 -0 -0
0 0 0 0 0 0 0 0 0 0 0 0 0 0 0 0 0 0 0 0 0 0 0 0 0 0 0 0 0 0 0 0 0 0 0 0 0 0 0 0 0 0 0 0 0 0 0 0 0
0 0 0 0 0 0 0 0 0 0 0 0 0 0 0 0 0 0 0 0 0 0 0 0 0 0 0 0 0 0 0 0 0 0 0 0 0 0 0 0 0 0 0 0 0 0 0 0 0
0 0 0 0 0 0 0 0 0 0 0 0 0 0 0 0 0 0 0 0 0 0 0 0 0 0 0 0 0 0 0 0 0 0 0 0 0 0 0 0 0 0 0 0 0 0 0 0 0
0 0 0 0 0 0 0 0 0 0 0 0 0 0 0 0 0 0 0 0 0 0 0 0 0 0 0 0 0 0 0 0 0 0 0 0 0 0 0 0 0 0 0 0 0 0 0 0 0
0 0 0 0 0 0 0 0 0 0 0 0 0 0 0 0 0 0 0 0 0 0 0 0 0 0 0 0 0 0 0 0 0 0 0 0 0 0 0 0 0 0 0 0 0 0 0 0 0
0 0 0 0 0 0 0 0 0 0 0 0 0 0 0 0 0 0 0 0 0 0 0 0 0 0 0 0 0 0 0 0 0 0 0 0 0 0 0 0 0 0 0 0 0 0 0 0 0
0 0 0 0 0 0 0 0 0 0 0 0 0 0 0 0 0 0 0 0 0 0 0 0 0 0 0 0 0 0 0 0 0 0 0 0 0 0 0 0 0 0 0 0 0 0 0 0 0
0 0 0 0 0 0 0 0 0 0 0 0 0 0 0 0 0 0 0 0 0 0 0 0 0 0 0 0 0 0 0 0 0 0 0 0 0 0 0 0 0 0 0 0 0 0 0 0 0
0 0 0 0 0 0 0 0 0 0 0 0 0 0 0 0 0 0 0 0 0 0 0 0 0 0 0 0 0 0 0 0 0 0 0 0 0 0 0 0 0 0 0 0 0 0 0 0 0
0 0 0 0 0 0 0 0 0 0 0 0 0 0 0 0 0 0 0 0 0 0 0 0 0 0 0 0 0 0 0 0 0 0 0 0 0 0 0 0 0 0 0 0 0 0 0 0 0
0 0 0 0 0 0 0 0 0 0 0 0 0 0 0 0 0 0 0 0 0 0 0 0 0 0 0 0 0 0 0 0 0 0 0 0 0 0 0 0 0 -0 -0 0 0 0 0 0 0
0 0 0 0 0 0 0 0 0 0 0 0 0 0 0 0 0 0 0 0 0 0 0 0 0 0 0 0 0 0 0 0 0 0 0 0 0 0 0 0 0 0 0 0 0 0 0 -0 0
0 0 0 0 0 0 0 0 0 0 0 0 0 0 0 0 0 0 0 0 0 0 0 0 0 0 0 0 0 0 0 0 0 0 0 0 0 0 0 0 0 0 0 0 0 0 0 0 0
0 0 0 0 0 0 0 0 0 0 0 0 0 0 0 0 0 0 0 0 0 0 0 0 0 0 0 0 0 0 0 0 0 0 0 0 0 0 0 0 0 0 0 0 0 0 0 0 0
0 0 0 0 0 0 0 0 0 0 -0 0 0 0 0 0 0 0 0 0 0 0 0 0 0 0 0 0 0 0 0 0 0 0 0 0 0 0 0 0 0 0 0 0 0 0 0 0 0
0 0 0 0 0 0 0 0 0 0 0 0 0 0 0 0 0 0 0 0 0 0 0 0 0 0 0 0 0 0 0 0 0 0 0 0 0 0 0 0 0 0 0 0 0 0 0 0 0
0 0 0 0 0 0 0 0 0 0 0 0 0 0 0 0 0 0 0 0 0 0 0 0 0 0 0 0 0 0 0 0 0 0 0 0 0 0 0 0 0 0 0 0 0 0 0 0 0
0 0 0 0 0 0 0 0 0 0 0 0 0 0 0 0 0 0 0 0 0 0 0 0 0 0 0 0 0 0 0 0 0 0 0 0 0 0 0 0 0 0 0 0 0 0 0 0 0
0 0 0 0 0 0 0 0 0 0 0 0 0 0 0 0 0 0 0 0 0 0 0 0 0 0 0 0 0 0 0 0 0 0 0 0 0 0 0 0 0 0 0 0 0 0 0 0 0
0 0 0 0 0 0 0 0 0 0 0 0 0 0 0 0 0 0 0 0 0 0 0 0 0 0 0 0 0 0 0 0 0 0 0 0 0 0 0 0 0 0 0 0 0 0 0 0 0
0 0 0 0 0 0 0 0 0 0 0 0 0 0 -0 -0 -0 -0 0 0 0 0 0 0 0 0 0 0 0 0 0 0 0 0 0 0 0 0 0 0 0 0 0 0 0 0 0 0 0
0 0 0 0 0 0 0 0 0 0 0 0 0 -0 -0 -0 -0 0 0 0 0 0 0 0 0 0 0 0 0 0 0 0 0 0 0 0 0 0 0 0 0 0 0 0 0 0 0 0 0
0 0 0 0 0 0 0 0 0 0 -0 -0 -0 -0 -0 -0 -0 0 0 0 0 0 0 0 0 0 0 0 0 0 0 0 0 0 0 0 0 0 0 0 0 0 0 0 0 0 0 0 0
0 0 0 0 0 0 0 0 0 0 -0 -0 -0 -0 -0 -0 -0 0 0 0 0 0 0 0 0 0 0 0 0 0 0 0 0 0 0 0 0 0 0 0 0 0 0 0 0 0 0 0 0
Wind_Speed_500mb
12 15 12 10 4 8 7 14 6 8 6 10 19 12 14 10 12 9 23 45 60 56 48 44 27 21 26 25 15 14 17 16 15 14 9 9 13 15 16 16 15 14 15 17 17 17 19 21 14
12 18 15 4 7 0 11 7 15 15 10 28 21 12 5 10 10 7 35 50 60 53 47 41 31 28 27 24 19 19 14 14 15 13 12 9 9 9 11 15 15 14 11 13 14 14 9 14 24
15 20 9 8 8 12 11 12 9 6 34 12 9 6 7 5 16 11 27 55 60 53 45 38 35 32 27 27 17 17 14 11 10 12 12 13 13 11 10 10 15 18 17 15 12 15 15 15 18
13 11 4 6 17 13 12 7 13 19 17 11 9 4 6 12 9 27 40 54 57 52 43 30 31 28 25 23 19 15 15 14 12 12 12 13 13 15 15 17 17 17 19 21 23 22 19 22 24
18 7 3 6 13 11 7 8 40 15 17 18 22 7 5 14 22 28 51 53 54 51 44 34 26 23 23 23 20 18 17 13 11 9 12 11 11 11 16 17 19 21 21 21 23 26 27 26 27
8 3 2 12 12 10 5 19 26 12 12 17 16 14 8 18 29 38 49 51 51 50 45 38 29 27 25 24 21 20 19 15 13 5 6 10 14 16 12 15 19 21 24 25 26 26 28 30 30
8 6 10 8 8 8 10 29 17 20 19 16 12 14 9 30 36 41 48 49 51 49 47 42 36 36 31 26 23 18 15 12 9 7 8 1 4 13 16 19 20 23 25 25 27 28 28 27 30
9 7 6 10 8 14 13 33 12 31 18 16 27 15 14 50 49 47 50 50 49 50 48 44 37 31 28 24 21 14 10 8 7 7 7 8 10 9 11 17 19 20 25 27 29 28 30 31 31
11 1 8 11 12 8 15 9 11 12 16 26 30 16 14 40 57 57 56 54 53 53 51 47 41 35 30 23 18 17 15 13 11 10 10 10 11 12 12 13 18 18 20 25 28 28 31 33 34
12 8 19 13 7 6 12 10 20 9 11 17 24 30 24 47 63 69 72 69 63 60 54 47 43 39 34 29 24 19 15 13 10 10 10 11 11 12 12 12 15 17 19 19 22 27 29 32 33
13 13 10 9 13 8 8 7 20 14 12 30 43 49 42 56 65 69 69 67 65 57 54 51 46 41 36 31 26 21 18 15 13 12 11 11 11 12 12 12 12 12 13 14 14 16 20 24 27
7 21 15 7 14 9 9 10 13 36 20 17 40 40 53 64 70 73 72 68 62 60 55 51 46 41 36 31 27 23 20 19 17 16 15 13 13 13 14 14 13 12 12 14 15 15 14 16 20
11 8 11 15 18 18 13 20 21 41 61 55 29 40 57 65 68 69 68 66 64 62 56 50 46 42 36 31 27 23 20 18 15 13 13 13 13 14 14 14 13 14 14 13 14 15 16 15 17
4 7 10 13 18 19 11 6 12 35 38 55 47 47 57 67 71 71 75 73 71 64 58 53 47 42 36 31 26 21 16 13 10 9 7 6 7 8 10 11 13 15 16 16 15 16 16 16 16
4 10 10 15 13 11 14 10 23 42 28 43 51 53 59 66 71 75 73 76 73 66 59 55 49 43 36 30 25 19 14 11 9 7 7 9 10 9 9 9 10 11 13 15 18 19 19 18 17
6 2 6 3 11 7 16 14 13 19 35 41 49 55 62 69 73 74 74 74 74 68 62 56 52 45 40 32 27 21 16 11 10 9 10 12 12 12 14 15 16 17 18 18 18 18 20 20 20
4 11 11 16 17 8 12 10 1 8 29 36 50 60 67 70 74 78 76 77 75 70 63 58 53 48 42 36 29 24 20 16 13 12 12 12 11 11 14 18 20 22 24 24 25 27 28 26 22
13 11 10 12 9 10 10 29 23 18 29 47 56 67 73 80 86 81 79 76 73 68 60 57 55 50 44 38 32 26 20 16 13 12 11 12 12 13 16 18 19 21 23 26 27 28 31 32 30
3 8 12 11 8 7 17 25 31 22 36 40 60 72 80 85 75 76 77 76 75 70 64 61 59 53 46 40 33 27 21 17 14 12 12 13 14 17 18 18 19 21 23 27 29 28 28 31 34
12 13 22 12 5 12 14 28 25 26 21 55 68 70 60 55 61 71 77 79 78 73 69 65 59 52 46 38 32 25 20 15 13 13 15 16 18 19 19 19 19 19 20 22 23 25 26 29 33
10 13 11 18 8 8 11 21 14 14 36 61 63 46 46 66 73 75 80 84 83 80 76 67 60 53 46 39 33 27 22 17 15 14 16 18 20 20 20 21 19 20 22 22 24 26 27 28 27
13 10 3 2 5 10 2 19 8 12 18 9 21 21 43 59 63 73 81 88 89 82 71 63 59 54 47 39 32 26 20 15 14 15 17 19 20 21 22 21 22 22 22 23 24 26 26 26 26
8 6 5 3 4 8 5 2 6 5 16 8 18 28 28 56 65 73 80 85 88 81 72 63 58 52 47 39 32 25 18 16 15 17 19 20 21 22 22 23 23 25 26 27 27 27 27 26 26
7 7 9 7 3 6 18 15 10 8 6 7 9 23 23 49 59 61 67 78 89 79 71 64 60 54 47 39 32 24 19 18 17 19 21 23 22 22 23 24 26 27 28 29 29 29 29 30 29
4 7 5 6 1 14 3 5 16 9 7 3 11 20 19 40 50 59 68 79 87 82 77 69 63 60 52 42 33 26 21 20 20 22 24 24 24 24 24 27 28 29 30 30 31 32 33 34 33
7 8 9 11 5 8 6 12 10 9 11 12 12 6 13 31 41 51 62 72 79 81 78 71 67 60 52 43 35 27 23 22 22 25 27 27 28 28 27 28 29 30 31 33 33 34 34 35 34
1 5 3 2 7 5 6 11 9 3 10 13 22 10 11 23 36 47 56 65 71 78 77 72 67 61 52 43 36 28 24 22 25 28 29 28 29 30 30 30 31 32 34 35 35 36 36 36 36
3 5 2 4 7 9 4 8 7 7 9 4 4 7 13 20 33 44 53 61 65 71 73 68 61 55 49 41 33 27 23 24 28 29 28 27 28 29 30 31 32 33 34 35 35 36 36 38 37
6 3 4 4 4 5 5 12 9 7 4 1 8 8 10 16 28 40 49 55 58 66 71 64 58 53 47 39 29 24 24 25 26 26 25 24 26 27 30 32 33 35 35 34 35 36 38 38 38
4 10 11 6 7 5 5 12 1 8 6 9 15 9 12 15 22 35 45 50 58 64 67 62 60 53 42 32 27 24 24 24 24 22 22 24 26 28 31 33 35 36 38 37 36 37 37 39 38
Wind_Direction_500mb
192 189 179 173 57 60 234 243 145 156 200 196 159 168 188 154 171 199 166 168 168 172 178 190 163 176 215 236 240 248 188 184 206 222 222 204 198 190 190 190 184 185 171 155 162 174 152 143 138
190 190 181 169 105 201 262 239 205 197 166 147 150 128 153 208 192 176 163 164 168 174 178 187 183 195 212 222 222 223 196 171 186 199 183 181 190 197 202 211 216 209 207 205 187 180 150 175 160
182 185 171 136 152 203 224 217 201 81 149 137 124 176 186 223 205 187 170 167 170 175 178 181 193 198 199 202 174 194 175 169 167 194 207 191 186 200 189 213 226 226 214 222 220 223 194 189 179
179 178 95 130 226 253 210 187 146 124 185 222 185 169 212 201 172 173 168 170 171 174 175 166 171 171 166 163 166 146 144 156 157 189 221 223 193 191 205 205 207 216 230 224 221 217 217 229 227
191 170 168 237 245 258 235 178 163 163 167 185 183 205 223 199 180 175 169 171 175 175 176 165 143 141 142 144 148 161 189 198 183 180 229 253 271 221 203 208 214 216 222 233 237 235 225 229 238
184 138 115 235 242 259 262 180 166 157 164 157 174 155 216 198 190 174 173 174 178 185 181 173 153 142 138 138 150 178 186 202 235 232 221 235 260 274 269 241 230 228 228 226 232 235 243 237 241
151 112 224 232 249 273 226 169 177 173 167 208 184 158 206 192 188 182 178 180 181 185 188 187 184 174 159 165 176 187 185 197 207 235 280 287 243 263 266 265 256 251 246 239 234 235 238 241 243
202 127 259 245 209 257 190 169 205 176 203 186 187 194 211 194 185 185 185 186 187 188 190 192 193 189 187 188 189 187 186 194 208 228 247 280 291 283 263 266 266 263 256 250 244 241 241 240 242
178 90 237 242 181 243 163 178 175 202 165 186 196 202 216 190 185 186 188 191 193 193 195 195 196 196 197 198 195 189 191 197 207 224 241 254 262 272 274 274 276 270 262 260 258 250 245 241 243
170 180 219 211 197 224 192 189 175 180 197 219 217 213 208 189 191 193 194 195 195 195 195 196 198 199 200 201 200 201 210 219 232 236 236 242 250 256 266 276 275 272 270 266 259 258 252 244 242
195 222 206 238 222 204 196 215 182 170 225 219 221 208 200 194 197 202 203 205 201 196 198 196 197 197 199 201 203 203 205 214 226 239 249 258 266 270 269 273 276 276 278 272 264 250 245 241 241
228 241 217 209 211 193 191 182 204 209 229 242 242 232 206 202 205 206 206 203 200 197 196 197 196 198 198 200 203 205 208 214 218 223 230 238 248 260 272 277 277 273 269 276 280 277 270 255 247
228 247 222 227 225 228 214 217 220 245 238 245 239 214 211 209 210 209 209 204 201 200 197 198 198 198 198 199 202 205 205 204 209 215 221 231 245 256 268 277 285 290 291 284 279 281 283 276 267
314 272 266 256 240 234 216 264 181 262 249 239 234 216 215 213 211 208 206 205 203 201 199 198 196 196 197 198 202 206 210 215 222 235 249 264 265 268 270 276 285 295 303 303 301 295 289 282 279
302 308 306 231 221 236 198 253 229 244 234 217 215 216 216 216 213 216 213 206 206 202 200 198 197 195 196 197 199 204 215 228 249 272 297 308 321 324 319 312 310 310 310 313 314 314 307 301 299
326 146 283 318 140 213 161 273 258 242 217 212 215 219 220 218 218 217 215 211 207 203 199 199 198 195 196 196 199 201 209 220 243 268 285 296 316 330 340 343 344 344 340 334 327 318 310 313 313
268 254 219 310 192 134 186 269 69 226 209 226 225 225 224 222 218 218 215 212 209 203 201 200 197 197 196 197 200 204 212 224 241 264 283 300 307 316 329 336 342 345 345 342 344 342 335 332 326
215 230 241 236 199 180 207 254 264 231 208 231 234 231 227 226 223 217 213 211 207 204 203 204 200 197 197 199 201 204 210 221 236 255 277 292 299 308 319 327 331 333 333 335 337 341 341 341 340
185 217 243 249 184 175 237 246 258 229 214 234 234 230 228 224 219 216 213 210 204 203 204 205 202 198 200 200 201 202 208 219 236 258 273 285 293 304 315 320 324 328 330 332 333 335 337 337 339
247 262 265 277 148 191 279 270 258 255 222 226 233 230 222 208 208 210 206 205 204 204 205 205 203 203 200 201 203 209 216 230 253 268 276 277 284 296 306 312 315 318 323 328 329 331 337 344 350
230 213 232 250 333 236 318 273 237 270 245 248 246 248 227 211 203 204 204 204 202 204 204 203 202 202 202 202 206 210 216 225 240 260 272 280 290 296 300 302 305 310 315 318 323 325 327 334 344
261 232 183 179 73 243 358 291 231 256 278 51 4 255 218 197 201 207 204 202 201 204 204 203 202 201 201 203 205 211 218 231 252 264 271 277 282 286 290 294 298 302 304 307 310 312 315 320 327
243 52 83 67 110 357 204 253 243 3 260 359 347 355 194 195 200 200 206 206 200 204 201 200 201 202 204 205 206 212 219 232 251 265 270 272 276 279 282 287 292 296 299 299 299 300 303 306 309
136 79 61 58 77 279 193 178 273 204 247 322 333 15 173 188 194 199 201 201 200 202 199 199 201 202 204 205 208 213 227 243 259 270 272 271 272 275 279 283 286 288 290 291 293 294 296 297 295
105 91 311 287 7 249 84 111 258 328 348 249 296 332 183 189 190 192 195 198 201 198 196 199 202 202 203 205 209 216 233 248 264 274 274 273 273 273 274 279 280 281 282 283 284 285 287 289 290
193 181 183 249 252 294 9 232 257 224 285 312 341 56 170 189 195 200 202 203 203 198 198 200 201 203 204 205 208 220 236 249 268 275 274 273 271 272 274 276 278 280 282 283 283 283 282 282 283
107 191 349 10 187 242 219 287 334 15 28 19 28 48 169 195 206 208 207 210 207 202 201 204 202 203 204 205 211 225 241 258 271 271 268 267 268 271 275 278 281 284 285 285 284 281 279 278 279
319 44 46 160 261 240 225 262 222 330 33 32 11 191 200 207 213 217 217 213 210 206 203 203 205 206 206 209 215 231 242 261 267 263 260 261 264 269 273 278 281 284 286 286 283 280 277 277 278
144 184 205 318 223 266 301 274 224 157 182 337 305 257 239 229 224 221 220 216 211 207 205 204 204 205 208 213 225 235 247 260 257 254 254 258 264 270 274 278 282 285 287 288 284 280 276 277 277
100 179 179 211 207 234 266 261 297 174 189 230 261 231 217 238 233 222 217 213 209 207 205 204 203 204 209 219 231 245 258 264 259 256 260 264 270 271 277 281 285 288 291 290 287 281 276 277 280
Wind_Speed_850mb
12 15 12 10 4 8 7 14 6 8 6 10 19 12 14 10 12 9 23 45 60 56 48 44 27 21 26 25 15 14 17 16 15 14 9 9 13 15 16 16 15 14 15 17 17 17 19 21 14
12 18 15 4 7 0 11 7 15 15 10 28 21 12 5 10 10 7 35 50 60 53 47 41 31 28 27 24 19 19 14 14 15 13 12 9 9 9 11 15 15 14 11 13 14 14 9 14 24
15 20 9 8 8 12 11 12 9 6 34 12 9 6 7 5 16 11 27 55 60 53 45 38 35 32 27 27 17 17 14 11 10 12 12 13 13 11 10 10 15 18 17 15 12 15 15 15 18
13 11 4 6 17 13 12 7 13 19 17 11 9 4 6 12 9 27 40 54 57 52 43 30 31 28 25 23 19 15 15 14 12 12 12 13 13 15 15 17 17 17 19 21 23 22 19 22 24
18 7 3 6 13 11 7 8 40 15 17 18 22 7 5 14 22 28 51 53 54 51 44 34 26 23 23 23 20 18 17 13 11 9 12 11 11 11 16 17 19 21 21 21 23 26 27 26 27
8 3 2 12 12 10 5 19 26 12 12 17 16 14 8 18 29 38 49 51 51 50 45 38 29 27 25 24 21 20 19 15 13 5 6 10 14 16 12 15 19 21 24 25 26 26 28 30 30
8 6 10 8 8 8 10 29 17 20 19 16 12 14 9 30 36 41 48 49 51 49 47 42 36 36 31 26 23 18 15 12 9 7 8 1 4 13 16 19 20 23 25 25 27 28 28 27 30
9 7 6 10 8 14 13 33 12 31 18 16 27 15 14 50 49 47 50 50 49 50 48 44 37 31 28 24 21 14 10 8 7 7 7 8 10 9 11 17 19 20 25 27 29 28 30 31 31
11 1 8 11 12 8 15 9 11 12 16 26 30 16 14 40 57 57 56 54 53 53 51 47 41 35 30 23 18 17 15 13 11 10 10 10 11 12 12 13 18 18 20 25 28 28 31 33 34
12 8 19 13 7 6 12 10 20 9 11 17 24 30 24 47 63 69 72 69 63 60 54 47 43 39 34 29 24 19 15 13 10 10 10 11 11 12 12 12 15 17 19 19 22 27 29 32 33
13 13 10 9 13 8 8 7 20 14 12 30 43 49 42 56 65 69 69 67 65 57 54 51 46 41 36 31 26 21 18 15 13 12 11 11 11 12 12 12 12 12 13 14 14 16 20 24 27
7 21 15 7 14 9 9 10 13 36 20 17 40 40 53 64 70 73 72 68 62 60 55 51 46 41 36 31 27 23 20 19 17 16 15 13 13 13 14 14 13 12 12 14 15 15 14 16 20
11 8 11 15 18 18 13 20 21 41 61 55 29 40 57 65 68 69 68 66 64 62 56 50 46 42 36 31 27 23 20 18 15 13 13 13 13 14 14 14 13 14 14 13 14 15 16 15 17
4 7 10 13 18 19 11 6 12 35 38 55 47 47 57 67 71 71 75 73 71 64 58 53 47 42 36 31 26 21 16 13 10 9 7 6 7 8 10 11 13 15 16 16 15 16 16 16 16
4 10 10 15 13 11 14 10 23 42 28 43 51 53 59 66 71 75 73 76 73 66 59 55 49 43 36 30 25 19 14 11 9 7 7 9 10 9 9 9 10 11 13 15 18 19 19 18 17
6 2 6 3 11 7 16 14 13 19 35 41 49 55 62 69 73 74 74 74 74 68 62 56 52 45 40 32 27 21 16 11 10 9 10 12 12 12 14 15 16 17 18 18 18 18 20 20 20
4 11 11 16 17 8 12 10 1 8 29 36 50 60 67 70 74 78 76 77 75 70 63 58 53 48 42 36 29 24 20 16 13 12 12 12 11 11 14 18 20 22 24 24 25 27 28 26 22
13 11 10 12 9 10 10 29 23 18 29 47 56 67 73 80 86 81 79 76 73 68 60 57 55 50 44 38 32 26 20 16 13 12 11 12 12 13 16 18 19 21 23 26 27 28 31 32 30
3 8 12 11 8 7 17 25 31 22 36 40 60 72 80 85 75 76 77 76 75 70 64 61 59 53 46 40 33 27 21 17 14 12 12 13 14 17 18 18 19 21 23 27 29 28 28 31 34
12 13 22 12 5 12 14 28 25 26 21 55 68 70 60 55 61 71 77 79 78 73 69 65 59 52 46 38 32 25 20 15 13 13 15 16 18 19 19 19 19 19 20 22 23 25 26 29 33
10 13 11 18 8 8 11 21 14 14 36 61 63 46 46 66 73 75 80 84 83 80 76 67 60 53 46 39 33 27 22 17 15 14 16 18 20 20 20 21 19 20 22 22 24 26 27 28 27
13 10 3 2 5 10 2 19 8 12 18 9 21 21 43 59 63 73 81 88 89 82 71 63 59 54 47 39 32 26 20 15 14 15 17 19 20 21 22 21 22 22 22 23 24 26 26 26 26
8 6 5 3 4 8 5 2 6 5 16 8 18 28 28 56 65 73 80 85 88 81 72 63 58 52 47 39 32 25 18 16 15 17 19 20 21 22 22 23 23 25 26 27 27 27 27 26 26
7 7 9 7 3 6 18 15 10 8 6 7 9 23 23 49 59 61 67 78 89 79 71 64 60 54 47 39 32 24 19 18 17 19 21 23 22 22 23 24 26 27 28 29 29 29 29 30 29
4 7 5 6 1 14 3 5 16 9 7 3 11 20 19 40 50 59 68 79 87 82 77 69 63 60 52 42 33 26 21 20 20 22 24 24 24 24 24 27 28 29 30 30 31 32 33 34 33
7 8 9 11 5 8 6 12 10 9 11 12 12 6 13 31 41 51 62 72 79 81 78 71 67 60 52 43 35 27 23 22 22 25 27 27 28 28 27 28 29 30 31 33 33 34 34 35 34
1 5 3 2 7 5 6 11 9 3 10 13 22 10 11 23 36 47 56 65 71 78 77 72 67 61 52 43 36 28 24 22 25 28 29 28 29 30 30 30 31 32 34 35 35 36 36 36 36
3 5 2 4 7 9 4 8 7 7 9 4 4 7 13 20 33 44 53 61 65 71 73 68 61 55 49 41 33 27 23 24 28 29 28 27 28 29 30 31 32 33 34 35 35 36 36 38 37
6 3 4 4 4 5 5 12 9 7 4 1 8 8 10 16 28 40 49 55 58 66 71 64 58 53 47 39 29 24 24 25 26 26 25 24 26 27 30 32 33 35 35 34 35 36 38 38 38
4 10 11 6 7 5 5 12 1 8 6 9 15 9 12 15 22 35 45 50 58 64 67 62 60 53 42 32 27 24 24 24 24 22 22 24 26 28 31 33 35 36 38 37 36 37 37 39 38
Wind_Direction_850mb
192 189 179 173 57 60 234 243 145 156 200 196 159 168 188 154 171 199 166 168 168 172 178 190 163 176 215 236 240 248 188 184 206 222 222 204 198 190 190 190 184 185 171 155 162 174 152 143 138
190 190 181 169 105 201 262 239 205 197 166 147 150 128 153 208 192 176 163 164 168 174 178 187 183 195 212 222 222 223 196 171 186 199 183 181 190 197 202 211 216 209 207 205 187 180 150 175 160
182 185 171 136 152 203 224 217 201 81 149 137 124 176 186 223 205 187 170 167 170 175 178 181 193 198 199 202 174 194 175 169 167 194 207 191 186 200 189 213 226 226 214 222 220 223 194 189 179
179 178 95 130 226 253 210 187 146 124 185 222 185 169 212 201 172 173 168 170 171 174 175 166 171 171 166 163 166 146 144 156 157 189 221 223 193 191 205 205 207 216 230 224 221 217 217 229 227
191 170 168 237 245 258 235 178 163 163 167 185 183 205 223 199 180 175 169 171 175 175 176 165 143 141 142 144 148 161 189 198 183 180 229 253 271 221 203 208 214 216 222 233 237 235 225 229 238
184 138 115 235 242 259 262 180 166 157 164 157 174 155 216 198 190 174 173 174 178 185 181 173 153 142 138 138 150 178 186 202 235 232 221 235 260 274 269 241 230 228 228 226 232 235 243 237 241
151 112 224 232 249 273 226 169 177 173 167 208 184 158 206 192 188 182 178 180 181 185 188 187 184 174 159 165 176 187 185 197 207 235 280 287 243 263 266 265 256 251 246 239 234 235 238 241 243
202 127 259 245 209 257 190 169 205 176 203 186 187 194 211 194 185 185 185 186 187 188 190 192 193 189 187 188 189 187 186 194 208 228 247 280 291 283 263 266 266 263 256 250 244 241 241 240 242
178 90 237 242 181 243 163 178 175 202 165 186 196 202 216 190 185 186 188 191 193 193 195 195 196 196 197 198 195 189 191 197 207 224 241 254 262 272 274 274 276 270 262 260 258 250 245 241 243
170 180 219 211 197 224 192 189 175 180 197 219 217 213 208 189 191 193 194 195 195 195 195 196 198 199 200 201 200 201 210 219 232 236 236 242 250 256 266 276 275 272 270 266 259 258 252 244 242
195 222 206 238 222 204 196 215 182 170 225 219 221 208 200 194 197 202 203 205 201 196 198 196 197 197 199 201 203 203 205 214 226 239 249 258 266 270 269 273 276 276 278 272 264 250 245 241 241
228 241 217 209 211 193 191 182 204 209 229 242 242 232 206 202 205 206 206 203 200 197 196 197 196 198 198 200 203 205 208 214 218 223 230 238 248 260 272 277 277 273 269 276 280 277 270 255 247
228 247 222 227 225 228 214 217 220 245 238 245 239 214 211 209 210 209 209 204 201 200 197 198 198 198 198 199 202 205 205 204 209 215 221 231 245 256 268 277 285 290 291 284 279 281 283 276 267
314 272 266 256 240 234 216 264 181 262 249 239 234 216 215 213 211 208 206 205 203 201 199 198 196 196 197 198 202 206 210 215 222 235 249 264 265 268 270 276 285 295 303 303 301 295 289 282 279
302 308 306 231 221 236 198 253 229 244 234 217 215 216 216 216 213 216 213 206 206 202 200 198 197 195 196 197 199 204 215 228 249 272 297 308 321 324 319 312 310 310 310 313 314 314 307 301 299
326 146 283 318 140 213 161 273 258 242 217 212 215 219 220 218 218 217 215 211 207 203 199 199 198 195 196 196 199 201 209 220 243 268 285 296 316 330 340 343 344 344 340 334 327 318 310 313 313
268 254 219 310 192 134 186 269 69 226 209 226 225 225 224 222 218 218 215 212 209 203 201 200 197 197 196 197 200 204 212 224 241 264 283 300 307 316 329 336 342 345 345 342 344 342 335 332 326
215 230 241 236 199 180 207 254 264 231 208 231 234 231 227 226 223 217 213 211 207 204 203 204 200 197 197 199 201 204 210 221 236 255 277 292 299 308 319 327 331 333 333 335 337 341 341 341 340
185 217 243 249 184 175 237 246 258 229 214 234 234 230 228 224 219 216 213 210 204 203 204 205 202 198 200 200 201 202 208 219 236 258 273 285 293 304 315 320 324 328 330 332 333 335 337 337 339
247 262 265 277 148 191 279 270 258 255 222 226 233 230 222 208 208 210 206 205 204 204 205 205 203 203 200 201 203 209 216 230 253 268 276 277 284 296 306 312 315 318 323 328 329 331 337 344 350
230 213 232 250 333 236 318 273 237 270 245 248 246 248 227 211 203 204 204 204 202 204 204 203 202 202 202 202 206 210 216 225 240 260 272 280 290 296 300 302 305 310 315 318 323 325 327 334 344
261 232 183 179 73 243 358 291 231 256 278 51 4 255 218 197 201 207 204 202 201 204 204 203 202 201 201 203 205 211 218 231 252 264 271 277 282 286 290 294 298 302 304 307 310 312 315 320 327
243 52 83 67 110 357 204 253 243 3 260 359 347 355 194 195 200 200 206 206 200 204 201 200 201 202 204 205 206 212 219 232 251 265 270 272 276 279 282 287 292 296 299 299 299 300 303 306 309
136 79 61 58 77 279 193 178 273 204 247 322 333 15 173 188 194 199 201 201 200 202 199 199 201 202 204 205 208 213 227 243 259 270 272 271 272 275 279 283 286 288 290 291 293 294 296 297 295
105 91 311 287 7 249 84 111 258 328 348 249 296 332 183 189 190 192 195 198 201 198 196 199 202 202 203 205 209 216 233 248 264 274 274 273 273 273 274 279 280 281 282 283 284 285 287 289 290
193 181 183 249 252 294 9 232 257 224 285 312 341 56 170 189 195 200 202 203 203 198 198 200 201 203 204 205 208 220 236 249 268 275 274 273 271 272 274 276 278 280 282 283 283 283 282 282 283
107 191 349 10 187 242 219 287 334 15 28 19 28 48 169 195 206 208 207 210 207 202 201 204 202 203 204 205 211 225 241 258 271 271 268 267 268 271 275 278 281 284 285 285 284 281 279 278 279
319 44 46 160 261 240 225 262 222 330 33 32 11 191 200 207 213 217 217 213 210 206 203 203 205 206 206 209 215 231 242 261 267 263 260 261 264 269 273 278 281 284 286 286 283 280 277 277 278
144 184 205 318 223 266 301 274 224 157 182 337 305 257 239 229 224 221 220 216 211 207 205 204 204 205 208 213 225 235 247 260 257 254 254 258 264 270 274 278 282 285 287 288 284 280 276 277 277
100 179 179 211 207 234 266 261 297 174 189 230 261 231 217 238 233 222 217 213 209 207 205 204 203 204 209 219 231 245 258 264 259 256 260 264 270 271 277 281 285 288 291 290 287 281 276 277 280